Albion, NE

5:47 AM CDT on June 28, 2017 (GMT -0500)
Albion Municipal

Weather History for KBVN - October, 2012

Change the Weather History Date:

Thursday, October 4, 2012

  Actual Average (KOFK) Record (KOFK)
Temperature  
Mean Temperature 42 °F -  
Max Temperature 53 °F 69 °F 92 °F (1938)
Min Temperature 31 °F 42 °F 25 °F (1935)
Degree Days  
Heating Degree Days 23    
Moisture  
Dew Point 31 °F    
Average Humidity 59    
Maximum Humidity 77    
Minimum Humidity 39    
Precipitation  
Precipitation 0.00 in - - ()
Sea Level Pressure  
Sea Level Pressure 30.24 in    
Wind  
Wind Speed 18 mph (NNW)    
Max Wind Speed 28 mph    
Max Gust Speed 38 mph    
Visibility 10 miles    
Events Thunderstorm    
Averages and records for this station are not official NWS values.
T = Trace of Precipitation, MM = Missing Value Source: NWS Daily Summary

Daily Weather History Graph

Daily Weather History Graph

Search for Another Location

Airport or City:

Trip Planner

Search our weather history database for the weather conditions in past years. The results will help you decide how hot, cold, wet, or windy it might be!

Date:

Astronomy

Oct. 04, 2012 Rise Set
Actual Time 7:32 AM CDT 7:07 PM CDT
Civil Twilight 7:05 AM CDT 7:35 PM CDT
Nautical Twilight 6:32 AM CDT 8:07 PM CDT
Astronomical Twilight 6:00 AM CDT 8:40 PM CDT
Moon 9:40 PM CDT (10/4) 11:55 AM CDT (10/4)
Length of Visible Light 12h 30m
Length of Day
11h 35m
Waning Gibbous, 82% of the Moon is Illuminated
Oct 4
Waning Gibbous
Oct 8
Last Quarter
Oct 15
New
Oct 21
First Quarter
Oct 29
Full

Hourly Weather History & Observations

Time (CDT) Temp. Windchill Dew Point Humidity Pressure Visibility Wind Dir Wind Speed Gust Speed Precip Events Conditions
12:15 AM 50.7 °F - 38.3 °F 62% 30.06 in 10.0 mi NW 24.2 mph 35.7 mph N/A   Clear
12:35 AM 49.5 °F - 38.3 °F 65% 30.08 in 10.0 mi NW 24.2 mph 36.8 mph N/A   Clear
12:55 AM 49.1 °F - 38.3 °F 66% 30.08 in 10.0 mi NW 25.3 mph 33.4 mph N/A Thunderstorm Clear
1:15 AM 47.5 °F - 37.8 °F 69% 30.07 in 10.0 mi NNW 27.6 mph 38.0 mph N/A   Clear
1:35 AM 46.4 °F 38.5 °F 37.8 °F 72% 30.09 in 10.0 mi NW 21.9 mph 28.8 mph N/A   Scattered Clouds
1:55 AM 45.9 °F 38.8 °F 37.6 °F 73% 30.11 in 10.0 mi NW 17.3 mph 27.6 mph N/A   Scattered Clouds
2:15 AM 45.9 °F 39.1 °F 37.6 °F 73% 30.13 in 10.0 mi NW 16.1 mph 23.0 mph N/A   Mostly Cloudy
2:35 AM 46.4 °F 37.5 °F 36.9 °F 69% 30.12 in 10.0 mi NNW 27.6 mph 35.7 mph N/A   Mostly Cloudy
2:55 AM 45.7 °F 38.3 °F 36.3 °F 70% 30.14 in 10.0 mi NW 18.4 mph 32.2 mph N/A   Mostly Cloudy
3:15 AM 45.1 °F 36.0 °F 35.1 °F 68% 30.14 in 10.0 mi NW 26.5 mph 38.0 mph N/A   Mostly Cloudy
3:35 AM 44.1 °F 35.2 °F 34.3 °F 69% 30.11 in 10.0 mi NNW 23.0 mph 31.1 mph N/A   Scattered Clouds
3:55 AM 43.2 °F 35.0 °F 34.0 °F 70% 30.11 in 10.0 mi NNW 18.4 mph 25.3 mph N/A Thunderstorm Clear
4:15 AM 42.8 °F 34.5 °F 33.8 °F 70% 30.13 in 10.0 mi NNW 18.4 mph 25.3 mph N/A Thunderstorm Clear
4:35 AM 42.8 °F 34.3 °F 33.4 °F 70% 30.15 in 10.0 mi NNW 19.6 mph 32.2 mph N/A   Scattered Clouds
4:55 AM 42.8 °F 34.8 °F 33.3 °F 69% 30.15 in 10.0 mi NNW 17.3 mph 24.2 mph N/A   Mostly Cloudy
5:15 AM 43.2 °F 35.9 °F 33.3 °F 68% 30.16 in 10.0 mi NNW 15.0 mph 32.2 mph N/A   Mostly Cloudy
5:35 AM 43.3 °F 35.5 °F 33.3 °F 68% 30.18 in 10.0 mi NNW 17.3 mph 21.9 mph N/A   Mostly Cloudy
5:55 AM 43.2 °F 35.6 °F 32.9 °F 67% 30.19 in 10.0 mi NNW 16.1 mph 25.3 mph N/A   Mostly Cloudy
6:15 AM 43.2 °F 35.0 °F 32.9 °F 67% 30.20 in 10.0 mi NW 18.4 mph 24.2 mph N/A   Mostly Cloudy
6:35 AM 43.2 °F 35.3 °F 32.5 °F 66% 30.20 in 10.0 mi NNW 17.3 mph 23.0 mph N/A Thunderstorm Mostly Cloudy
6:55 AM 42.4 °F 34.1 °F 32.0 °F 67% 30.21 in 10.0 mi NNW 18.4 mph 25.3 mph N/A   Mostly Cloudy
7:15 AM 42.1 °F 34.9 °F 32.0 °F 67% 30.22 in 10.0 mi NNW 13.8 mph 23.0 mph N/A   Mostly Cloudy
7:35 AM 41.2 °F 33.7 °F 32.0 °F 70% 30.23 in 10.0 mi NNW 13.8 mph 21.9 mph N/A   Scattered Clouds
7:55 AM 40.5 °F 33.2 °F 32.0 °F 72% 30.24 in 10.0 mi NW 12.7 mph - N/A   Scattered Clouds
8:15 AM 40.1 °F 32.0 °F 32.0 °F 73% 30.24 in 10.0 mi NNW 15.0 mph 20.7 mph N/A   Scattered Clouds
8:35 AM 41.2 °F 33.4 °F 32.0 °F 70% 30.23 in 10.0 mi NNW 15.0 mph 25.3 mph N/A   Clear
8:55 AM 42.4 °F 34.7 °F 31.6 °F 66% 30.24 in 10.0 mi NNW 16.1 mph 28.8 mph N/A   Clear
9:15 AM 43.7 °F 35.0 °F 31.1 °F 61% 30.25 in 10.0 mi NNW 21.9 mph 33.4 mph N/A   Scattered Clouds
9:35 AM 44.1 °F 36.2 °F 31.1 °F 60% 30.26 in 10.0 mi NNW 18.4 mph 28.8 mph N/A   Scattered Clouds
9:55 AM 45.3 °F 36.9 °F 31.1 °F 58% 30.27 in 10.0 mi NNW 23.0 mph 31.1 mph N/A   Mostly Cloudy
10:15 AM 45.0 °F 36.6 °F 30.9 °F 58% 30.27 in 10.0 mi NNW 21.9 mph 32.2 mph N/A   Mostly Cloudy
10:35 AM 45.5 °F 36.5 °F 30.9 °F 57% 30.27 in 10.0 mi NNW 26.5 mph 32.2 mph N/A   Mostly Cloudy
10:55 AM 45.5 °F 38.3 °F 30.6 °F 56% 30.28 in 10.0 mi North 17.3 mph 33.4 mph N/A   Mostly Cloudy
11:15 AM 46.9 °F - 30.9 °F 54% 30.29 in 10.0 mi NNW 21.9 mph 29.9 mph N/A   Mostly Cloudy
11:35 AM 48.7 °F - 31.1 °F 51% 30.30 in 10.0 mi North 19.6 mph 27.6 mph N/A   Mostly Cloudy
11:55 AM 47.7 °F - 30.6 °F 52% 30.30 in 10.0 mi NNW 24.2 mph 28.8 mph N/A   Overcast
12:15 PM 48.7 °F - 30.6 °F 50% 30.31 in 10.0 mi NNW 19.6 mph 28.8 mph N/A   Mostly Cloudy
12:35 PM 48.6 °F - 30.9 °F 51% 30.32 in 10.0 mi NW 19.6 mph 26.5 mph N/A   Mostly Cloudy
12:55 PM 49.5 °F - 30.2 °F 48% 30.32 in 10.0 mi North 17.3 mph 27.6 mph N/A   Mostly Cloudy
1:35 PM 51.4 °F - 30.2 °F 44% 30.30 in 10.0 mi NNW 19.6 mph 25.3 mph N/A   Scattered Clouds
1:55 PM 51.6 °F - 30.0 °F 44% 30.30 in 10.0 mi North 13.8 mph 28.8 mph N/A   Clear
2:15 PM 51.6 °F - 30.2 °F 44% 30.29 in 10.0 mi NW 19.6 mph 26.5 mph N/A   Clear
2:35 PM 51.3 °F - 29.5 °F 43% 30.28 in 10.0 mi North 12.7 mph 23.0 mph N/A   Clear
2:55 PM 52.7 °F - 29.8 °F 42% 30.28 in 10.0 mi North 12.7 mph 23.0 mph N/A   Clear
3:15 PM 52.3 °F - 29.3 °F 41% 30.28 in 10.0 mi North 11.5 mph 20.7 mph N/A   Clear
3:35 PM 52.9 °F - 29.1 °F 40% 30.29 in 10.0 mi NW 12.7 mph 21.9 mph N/A   Clear
3:55 PM 52.9 °F - 28.8 °F 40% 30.29 in 10.0 mi NNW 16.1 mph 23.0 mph N/A   Clear
4:15 PM 52.7 °F - 28.6 °F 40% 30.29 in 10.0 mi NNW 17.3 mph 23.0 mph N/A   Clear
4:35 PM 52.7 °F - 28.2 °F 39% 30.28 in 10.0 mi North 13.8 mph 19.6 mph N/A   Clear
4:55 PM 52.7 °F - 28.2 °F 39% 30.28 in 10.0 mi NNW 16.1 mph 21.9 mph N/A   Clear
5:15 PM 52.5 °F - 28.0 °F 39% 30.28 in 10.0 mi North 11.5 mph 20.7 mph N/A   Clear
5:55 PM 50.4 °F - 28.0 °F 42% 30.28 in 10.0 mi NNW 9.2 mph - N/A   Clear
6:15 PM 49.5 °F - 28.2 °F 44% 30.27 in 10.0 mi North 9.2 mph 17.3 mph N/A   Clear
6:35 PM 49.1 °F - 28.4 °F 45% 30.28 in 10.0 mi North 10.4 mph - N/A   Clear
6:55 PM 48.4 °F - 29.1 °F 47% 30.28 in 10.0 mi North 9.2 mph - N/A   Clear
7:15 PM 47.7 °F - 28.9 °F 48% 30.29 in 10.0 mi North 8.1 mph - N/A   Clear
7:35 PM 47.3 °F - 28.4 °F 48% 30.30 in 10.0 mi North 6.9 mph - N/A   Clear
7:55 PM 46.4 °F 43.5 °F 28.6 °F 50% 30.30 in 10.0 mi North 5.8 mph - N/A   Clear
8:15 PM 45.1 °F 40.8 °F 28.4 °F 52% 30.30 in 10.0 mi North 8.1 mph - N/A   Clear
8:35 PM 44.6 °F 40.2 °F 28.4 °F 53% 30.30 in 10.0 mi North 8.1 mph - N/A   Clear
8:55 PM 42.8 °F 39.3 °F 28.4 °F 57% 30.32 in 10.0 mi NNW 5.8 mph - N/A   Clear
9:15 PM 38.8 °F - 27.3 °F 63% 30.32 in 10.0 mi Calm Calm - N/A   Clear
9:35 PM 39.7 °F - 27.9 °F 63% 30.33 in 10.0 mi Calm Calm - N/A   Clear
9:55 PM 37.4 °F - 26.1 °F 64% 30.34 in 10.0 mi Calm Calm - N/A   Clear
10:15 PM 34.3 °F - 25.7 °F 71% 30.34 in 10.0 mi Calm Calm - N/A   Clear
10:35 PM 35.1 °F - 26.6 °F 71% 30.35 in 10.0 mi Calm Calm - N/A   Clear
10:55 PM 32.0 °F - 25.3 °F 76% 30.35 in 10.0 mi Calm Calm - N/A   Clear
11:15 PM 32.9 °F - 25.7 °F 75% 30.36 in 10.0 mi Calm Calm - N/A   Clear
11:35 PM 32.0 °F - 25.5 °F 77% 30.35 in 10.0 mi Calm Calm - N/A   Clear
11:55 PM 31.3 °F - 24.3 °F 75% 30.35 in 10.0 mi Calm Calm - N/A   Clear